Regional Weather Roundup
Issued by NWS Cleveland, OH

Home | Current Version | Previous Version | Graphics & Text | Print | Product List | Glossary On
Versions: 1 2 3 4 5 6 7 8 9 10 11 12 13 14 15 16 17 18 19 20 21 22 23 24 25 26 27 28 29 30 31 32 33 34 35 36 37 38 39 40 41 42 43 44 45 46 47 48 49 50
000
ASUS41 KCLE 241302
RWRCLE
OHIO REGIONAL WEATHER ROUNDUP
NATIONAL WEATHER SERVICE CLEVELAND, OH
900 AM EDT THU APR 24 2014

NOTE: "FAIR" INDICATES FEW OR NO CLOUDS BELOW 12,000 FEET WITH NO
SIGNIFICANT WEATHER AND/OR OBSTRUCTIONS TO VISIBILITY.

OHZ001>008-015>018-024>027-034-035-043-044-241400-
   NORTHWEST OHIO

CITY           SKY/WX    TMP DP  RH WIND       PRES   REMARKS
DEFIANCE       PTSUNNY   48  30  49 E10       30.16R
FINDLAY        CLOUDY    45  22  40 SE9       30.15S
TOLEDO EXPRESS CLOUDY    45  23  42 E10       30.16S
TOLEDO EXEC    CLOUDY    45  23  42 E10       30.18S
LIMA           CLOUDY    48  25  40 SE14      30.14S
$$

OHZ009>014-019>023-028>033-038-089-241400-
   NORTHEAST OHIO

CITY           SKY/WX    TMP DP  RH WIND       PRES   REMARKS
CLE-HOPKINS    CLOUDY    43  18  36 E3        30.22R
CLE-LAKEFRONT  PTSUNNY   42  17  36 CALM      30.18R
CUY CO. ARPT   PTSUNNY   43  19  39 E7        30.19R
LORAIN-ELYRIA  PTSUNNY   44  20  38 E6        30.20R
ASHTABULA      MOSUNNY   39  24  55 NW5       30.19R
AKRON-CANTON   PTSUNNY   42  24  49 CALM      30.18R
WOOSTER        PTSUNNY   40  23  50 SE6       30.19R
MANSFIELD      CLOUDY    41  17  38 E9        30.18R
YOUNGSTOWN     PTSUNNY   38  24  57 CALM      30.17R
$$

OHZ042-051>053-060>062-070>072-077>081-241400-
  SOUTHWEST OHIO

CITY           SKY/WX    TMP DP  RH WIND       PRES   REMARKS
CINC-COVINGTON CLOUDY    48  32  53 E12       30.10S
CINC-LUNKEN    CLOUDY    48  31  51 E10       30.13S
HAMILTON       CLOUDY    50  29  44 E13       30.13S
DAYTON         PTSUNNY   49  25  39 E14G20    30.13F
WRIGHT-PAT AFB PTSUNNY   49  26  41 E10       30.14R
DAYTON GENERAL PTSUNNY   47  27  45 SE14      30.11F
WILMINGTON     PTSUNNY   46  27  47 E14       30.13R
$$

OHZ036-037-039>041-045>050-054>059-063>069-073>076-082>088-241400-
  CENTRAL AND SOUTHEAST OHIO

CITY           SKY/WX    TMP DP  RH WIND       PRES   REMARKS
COLUMBUS       CLOUDY    48  11  22 E13       30.17R
OSU AIRPORT    CLOUDY    46  20  35 E7        30.16S
BOLTON FIELD   CLOUDY    45  25  45 E6        30.17S
RICKENBACK AFB NOT AVBL
NEWARK         CLOUDY    45  20  36 E8        30.17R
MARION         CLOUDY    43  19  38 E9        30.17S
LANCASTER      CLOUDY    46  21  37 E9        30.17R
ZANESVILLE     CLOUDY    42  27  55 CALM      30.19R
NEW PHILLY     CLOUDY    39  24  55 E3        30.21R
$$



USA.gov is the U.S. government's official web portal to all federal, state and local government web resources and services.